Location: Bukit Lungun
(2.6833°N, 113.9667°E)
Time: 21:00:04
(UTC+00:00)

MOS 1 Rocket - Pass Details

Date: 02 March 2021
Orbit: 615 x 829 km, 97.4° (Epoch: 18 April)

Event Time Altitude Azimuth Distance (km) Brightness Sun altitude
Rises 22:06:04 0° 173° (S) 2,921 6.7 -7.8°
Reaches altitude 10° 22:08:17 10° 175° (S) 1,995 5.8 -7.2°
Maximum altitude 22:12:35 70° 259° (W) 656 3.0 -6.2°
Drops below altitude 10° 22:16:49 10° 343° (NNW) 1,968 5.4 -5.1°
Sets 22:19:00 0° 345° (NNW) 2,877 6.3 -4.6°
